sat.trackr.live / text

‹ back to catalog

2024-205C

NORAD 61896 · 2024-205C

PAYLOAD ACTIVE UNKNOWN

§ Identity

Operator
Country
PRC
Launch date
2024-11-11
Launch site
JSC
Launch vehicle
Mass (kg)
RCS (m²)

External: N2YO · Heavens-Above · Gunter

§ Orbital elements

Epoch: 2026-09-22T23:13:37.029216Z

Period
95.14 min
Inclination
97.4042°
Eccentricity
0.0049957
Mean motion
15.13581928 rev/d
Perigee alt
490.8 km
Apogee alt
559.8 km
Semi-major
6,903.4 km
B*
2.3167e-4
RAAN
334.0254°
Arg perigee
25.8668°
Mean anomaly
334.5045°
Rev number
10,301

§ Raw data

2024-205C1 61896U 24205C   26265.96778969  .00004219  00000+0  23167-3 0  99922 61896  97.4042 334.0254 0049957  25.8668 334.5045 15.13581928103010

JSON: /api/v1/satellites/61896 · /tle

For live sub-satellite position, see the globe view (requires WebGL).

§ Visibility from observer

Set your observer location to see the next 7 days of passes ≥ 10°. The values pass through the URL so the page stays shareable.

No JS? Fill the form by hand. The geolocation button needs JavaScript.